User: anonymous   Login
Location: Carrizalito
(10.3833°N, 67.0217°W)
Time: 18:49:25
(UTC+00:00)
Language:

ZACube-1 - Orbit

View from above orbital plane
View from above orbital plane
View from above satellite
View from above satellite

Ground track
Ground track

The orbit data is extracted from the following two-line orbital elements,

1 39417U 13066B   23086.88342842  .00004506  00000-0  52989-3 0  9999
2 39417  97.6774  51.4832 0055063 192.9146 167.0662 14.84252273505130
Epoch (UTC): 27 March 2023 21:12:08
Eccentricity: 0.0055063
inclination: 97.6774°
perigee height: 577 km
apogee height: 654 km
right ascension of ascending node: 51.4832°
argument of perigee: 192.9146°
revolutions per day: 14.84252273
mean anomaly at epoch: 167.0662°
orbit number at epoch: 50513

The dashed part of the orbit path shows where the satellite is in the earth's shadow,  

DLR